Overview Statistics Trail Chart Weather Telemetry Raw packets
 

This is the latest recevied weather packets stored in our database for station/object EB1BWO-11. If no packets are shown the sender has not sent any weather packets the latest 10 day(s).

<< 28 29 30 31 32 33 >>
Time Temp. Humidity Pressure Rain* Wind** Luminosity Snow
1787862191 17.78° C 70% 1016 hPa - - - -
1787861290 18.89° C 68% 1015.7 hPa - - - -
1787860389 19.44° C 65% 1015.3 hPa - - - -
1787859488 19.44° C 65% 1014.7 hPa - - - -
1787858587 20° C 65% 1014.2 hPa - - - -
1787857686 20.56° C 65% 1013.6 hPa - - - -
1787856785 21.67° C 62% 1013.3 hPa - - - -
1787855885 22.22° C 55% 1012.6 hPa - - - -
1787854984 22.78° C 54% 1012.1 hPa - - - -
1787854083 22.78° C 52% 1012.1 hPa - - - -
1787853182 23.33° C 50% 1012.2 hPa - - - -
1787852282 25° C 49% 1011.9 hPa - - - -
1787851381 25.56° C 52% 1011.6 hPa - - - -
1787850480 25° C 51% 1011.4 hPa - - - -
1787849580 24.44° C 49% 1010.9 hPa - - - -
1787848680 24.44° C 50% 1010.9 hPa - - - -
1787847780 24.44° C 44% 1011 hPa - - - -
1787846880 24.44° C 49% 1011 hPa - - - -
1787845980 25° C 52% 1011.3 hPa - - - -
1787845079 25° C 53% 1011.3 hPa - - - -
1787844178 26.11° C 54% 1011.5 hPa - - - -
1787843278 26.67° C 55% 1011.2 hPa - - - -
1787842378 26.67° C 58% 1011.6 hPa - - - -
1787841478 25° C 62% 1011.5 hPa - - - -
1787840578 24.44° C 64% 1011.3 hPa - - - -

* Rain since midnight (hover to see other rain measurements)
** Current wind speed in m/s (hover to see current wind gust speed)